GLOBALSTAR M077

Last updated on Sat Sep 05 2026 00:03:15 GMT+0000 (Coordinated Universal Time)

1 37191U 10054D 26247.68170565 -.00000063 00000+0 28027-3 0 9991 2 37191 51.9992 337.5283 0002363 326.1027 202.9066 11.67547970730422
UTC large
Height (km)
Speed (km/s)
/
Latitude / Longitude
Inclination (degrees)
Orbital Period (minutes)
Azimuth
Elevation
Range (km)
Doppler Factor

Next 0 passes for location: London (51.5072 / 0.1276)

No passes found over London.
GLOBALSTAR M077